TimeCDT,TemperatureF,Dew PointF,Humidity,Sea Level PressureIn,VisibilityMPH,Wind Direction,Wind SpeedMPH,Gust SpeedMPH,PrecipitationIn,Events,Conditions,WindDirDegrees,DateUTC
12:52 AM,50.0,34.0,54,29.92,10.0,SSW,4.6,-,N/A,,Clear,210,2012-11-02 05:52:00
1:52 AM,48.0,34.0,58,29.91,10.0,SW,3.5,-,N/A,,Clear,220,2012-11-02 06:52:00
2:52 AM,50.0,35.1,57,29.91,10.0,SW,4.6,-,N/A,,Clear,230,2012-11-02 07:52:00
3:52 AM,50.0,35.1,57,29.89,10.0,SW,3.5,-,N/A,,Clear,230,2012-11-02 08:52:00
4:52 AM,50.0,36.0,59,29.90,10.0,WSW,3.5,-,N/A,,Clear,240,2012-11-02 09:52:00
5:52 AM,50.0,37.0,61,29.91,10.0,West,3.5,-,N/A,,Clear,260,2012-11-02 10:52:00
6:52 AM,43.0,36.0,76,29.94,10.0,Calm,Calm,-,N/A,,Clear,0,2012-11-02 11:52:00
7:52 AM,44.1,37.0,76,29.96,10.0,Calm,Calm,-,N/A,,Clear,0,2012-11-02 12:52:00
8:52 AM,52.0,39.9,63,29.99,10.0,NW,9.2,-,N/A,,Clear,310,2012-11-02 13:52:00
9:52 AM,55.9,39.9,55,30.01,10.0,North,9.2,-,N/A,,Clear,350,2012-11-02 14:52:00
10:52 AM,57.9,39.0,49,30.01,10.0,North,6.9,-,N/A,,Clear,350,2012-11-02 15:52:00
11:52 AM,60.1,36.0,41,30.02,10.0,NNW,8.1,-,N/A,,Clear,330,2012-11-02 16:52:00
12:52 PM,62.1,33.1,34,30.01,10.0,NNW,8.1,-,N/A,,Clear,340,2012-11-02 17:52:00
1:52 PM,63.0,32.0,31,30.00,10.0,Variable,4.6,-,N/A,,Clear,0,2012-11-02 18:52:00
2:52 PM,64.0,30.9,29,29.99,10.0,NW,9.2,-,N/A,,Clear,320,2012-11-02 19:52:00
3:52 PM,63.0,30.9,30,29.99,10.0,Variable,3.5,-,N/A,,Clear,0,2012-11-02 20:52:00
4:52 PM,61.0,32.0,34,30.00,10.0,NE,5.8,-,N/A,,Clear,40,2012-11-02 21:52:00
5:52 PM,55.0,32.0,42,30.02,10.0,NNE,4.6,-,N/A,,Clear,20,2012-11-02 22:52:00
6:52 PM,51.1,32.0,48,30.04,10.0,NNE,4.6,-,N/A,,Clear,20,2012-11-02 23:52:00
7:52 PM,50.0,32.0,50,30.05,10.0,NNE,3.5,-,N/A,,Clear,20,2012-11-03 00:52:00
8:52 PM,48.9,32.0,52,30.04,10.0,Calm,Calm,-,N/A,,Clear,0,2012-11-03 01:52:00
9:52 PM,46.0,32.0,58,30.05,10.0,Calm,Calm,-,N/A,,Clear,0,2012-11-03 02:52:00
10:52 PM,46.0,32.0,58,30.06,10.0,Calm,Calm,-,N/A,,Clear,0,2012-11-03 03:52:00